Theta_e
317 316 316 314 314 314 314 314 312 310 311 313 313 313 311 312 312 312 312 311 312 312 311 310 310 310 312 317 318 315 317 311 311 314 314 314 315 316 318 317 315 314 314 310 310 315 316
319 316 317 314 314 313 314 314 312 309 311 311 312 313 312 312 310 312 311 311 311 311 310 309 309 310 311 316 314 316 316 316 313 314 314 313 314 314 316 315 316 314 310 310 309 310 309
319 316 317 315 313 313 314 314 311 309 311 312 312 312 312 312 311 312 311 312 312 310 309 308 309 310 314 316 315 316 315 315 316 314 314 314 314 316 316 315 311 309 311 310 311 311 311
320 317 317 315 314 313 313 314 310 309 312 312 312 312 312 312 310 311 311 312 311 309 308 309 309 311 318 313 314 314 315 315 315 315 315 316 315 315 316 312 312 312 312 313 312 313 311
323 318 316 316 314 313 313 312 310 310 312 313 312 312 312 312 311 312 311 310 309 309 309 309 311 313 319 313 314 316 315 314 313 315 315 315 315 317 311 313 314 313 314 314 314 313 313
322 320 316 316 315 313 312 312 309 310 312 313 312 311 312 312 312 312 310 308 309 310 310 311 313 316 313 314 317 314 314 314 316 314 315 315 313 315 313 313 315 315 314 313 315 314 318
318 322 317 316 315 314 312 311 309 311 312 313 312 311 312 312 313 311 309 309 311 313 312 314 313 312 314 316 314 314 314 315 315 316 317 315 317 317 316 312 311 312 313 314 313 315 322
312 320 319 316 316 314 312 311 309 311 313 312 312 311 312 313 312 310 310 312 313 318 322 316 315 315 315 316 315 313 316 317 317 317 315 317 318 315 316 316 316 316 316 317 317 318 321
307 314 320 317 316 315 312 311 309 311 313 312 312 311 313 312 312 309 310 314 316 320 321 317 317 317 316 315 314 313 315 315 315 316 315 318 316 315 317 317 320 318 318 317 320 320 320
306 310 318 318 316 315 312 311 309 312 313 312 312 311 313 312 310 312 312 313 318 319 314 315 314 314 314 313 315 313 314 315 316 315 318 319 316 316 317 319 318 321 317 318 321 321 323
308 306 314 319 316 315 312 310 309 311 313 312 312 311 313 311 314 314 318 324 324 314 319 313 314 315 313 314 314 315 315 315 316 316 317 319 318 318 319 318 318 320 316 318 316 317 318
308 306 309 318 317 315 312 310 310 311 313 312 312 311 313 312 312 319 322 324 316 321 320 314 315 315 316 315 315 314 317 315 314 317 317 317 315 316 317 316 316 318 319 319 318 319 322
306 307 308 317 317 315 312 310 310 312 313 312 312 311 313 313 318 326 326 312 319 322 316 315 315 314 316 317 317 316 316 318 319 322 321 318 318 315 316 320 318 319 321 325 327 328 324
305 308 307 315 317 315 312 309 310 312 312 312 311 311 314 314 318 323 314 314 317 317 318 314 314 315 318 317 316 315 316 318 316 317 319 320 319 317 315 318 320 319 321 327 326 327 324
304 308 307 313 317 315 311 309 310 312 312 311 311 312 314 315 315 318 313 315 316 316 316 316 316 318 318 317 317 317 316 316 316 315 322 322 321 315 314 315 318 319 319 317 319 314 320
302 307 307 311 316 314 311 309 309 312 312 311 312 314 317 324 325 314 314 314 318 318 317 315 316 317 319 318 319 318 318 317 317 317 315 319 320 315 315 316 316 317 315 320 318 320 319
302 307 306 312 315 313 310 309 309 312 311 311 317 317 317 325 317 313 316 314 322 321 317 316 317 318 318 319 318 319 318 318 318 318 316 315 318 318 316 318 320 319 318 315 316 316 317
302 306 307 313 315 312 309 308 310 311 311 312 309 314 321 314 313 310 316 318 320 320 316 319 316 317 317 319 320 320 320 319 315 318 319 315 317 321 318 315 316 316 317 316 319 315 313
303 305 306 313 315 311 309 308 311 311 312 315 311 320 317 310 313 310 312 319 321 317 318 319 320 318 319 321 321 320 320 315 312 315 318 315 318 322 320 316 315 318 317 312 312 314 317
304 303 304 310 314 309 308 310 312 311 312 316 317 322 318 309 307 312 315 317 320 317 318 317 319 318 320 321 319 321 320 316 314 315 314 314 314 318 321 316 315 317 318 313 315 318 316
303 302 304 312 312 308 307 311 311 311 313 315 312 317 318 316 311 310 312 316 320 320 318 316 319 319 320 322 321 320 319 316 315 315 315 313 317 315 314 313 314 313 315 314 314 314 320
302 304 309 313 309 307 309 311 311 312 313 313 314 314 308 312 313 313 311 319 319 319 319 319 320 319 318 319 319 321 318 315 314 317 314 309 315 311 316 313 312 315 313 312 314 314 313
304 305 309 309 307 308 309 311 311 313 314 314 315 310 312 306 314 314 315 317 319 319 318 317 318 318 318 318 315 313 312 312 314 317 312 310 311 310 312 308 308 313 312 313 312 312 315
304 309 310 307 307 308 310 310 312 314 315 316 318 311 311 308 311 313 317 319 319 317 319 317 315 317 315 311 310 311 311 313 313 310 308 307 306 304 313 306 314 312 311 310 312 311 311
309 310 307 307 307 309 310 311 314 314 315 321 320 315 310 306 309 313 317 318 317 316 318 318 316 312 310 309 314 315 313 312 311 309 307 305 307 307 316 311 308 309 308 313 315 314 313
309 307 306 307 308 309 310 312 315 314 315 319 320 316 310 310 311 313 317 316 315 314 314 316 312 307 306 305 310 316 319 315 313 316 309 305 303 312 307 311 312 310 306 312 312 318 312
307 306 307 309 309 310 312 315 315 315 315 318 321 318 316 314 315 314 317 317 312 313 315 313 313 313 306 306 310 313 314 309 313 313 312 312 307 311 303 314 310 306 309 310 316 316 310
307 308 310 310 312 314 315 315 315 315 315 318 321 321 317 315 316 317 313 314 313 314 317 314 315 313 307 311 312 311 313 311 311 310 313 314 313 311 303 309 314 305 312 316 315 309 310
309 310 312 313 314 315 316 316 315 315 316 318 320 319 318 315 316 316 316 316 316 312 314 311 316 313 312 310 304 305 311 308 307 317 309 314 312 314 310 313 308 306 312 309 308 310 311
Wind_Speed
29 26 24 22 19 21 21 20 20 20 20 20 19 21 20 18 16 14 13 11 9 9 8 8 8 7 3 1 8 3 6 17 22 18 16 7 5 5 4 4 4 3 4 4 1 6 6
30 29 26 24 22 21 23 22 21 20 20 20 20 21 18 18 16 14 11 9 7 8 6 7 6 4 1 3 3 6 7 10 18 20 11 8 6 5 2 2 4 2 4 4 4 7 4
31 31 29 27 25 23 23 23 21 21 20 21 20 20 16 17 14 13 11 7 6 6 5 5 3 0 0 12 3 7 11 7 17 24 7 13 9 3 3 2 2 4 4 4 4 3 4
33 32 31 29 27 23 23 23 22 20 20 21 19 18 15 16 13 11 8 5 4 4 4 4 2 1 7 5 7 15 14 9 11 21 12 9 15 2 1 2 4 2 3 4 1 3 3
36 34 32 31 28 25 25 22 22 20 21 19 19 15 14 13 11 8 6 4 3 3 2 2 2 2 8 8 7 3 6 3 9 12 12 8 11 4 3 4 2 7 4 3 4 7 4
39 35 34 33 29 26 25 23 21 20 21 18 17 13 12 11 9 7 6 4 2 2 2 2 1 2 7 3 5 5 1 1 3 8 5 3 2 3 2 3 5 4 5 2 5 5 11
26 38 36 35 31 28 26 24 22 20 20 16 15 11 11 9 8 10 10 6 3 1 4 7 3 3 5 9 5 2 1 3 2 4 3 2 3 3 3 1 2 5 3 4 3 2 7
32 38 38 36 33 30 27 25 22 20 19 14 13 10 10 9 10 12 10 2 5 2 3 11 5 7 11 4 3 4 3 4 2 5 5 4 3 2 4 5 5 4 6 4 4 3 6
34 27 40 38 35 31 28 26 23 20 19 15 10 10 9 11 13 10 9 12 1 4 1 3 5 5 4 8 4 3 1 2 6 4 3 4 2 2 4 3 6 2 6 4 5 7 7
34 34 41 40 37 33 29 28 25 21 19 15 10 11 12 15 10 7 7 6 6 6 3 4 3 3 3 3 2 2 3 3 5 4 4 5 3 4 3 3 2 4 2 8 12 2 3
33 32 33 43 39 35 31 28 25 23 19 17 13 14 17 17 7 5 1 3 4 2 3 4 2 2 2 4 4 3 6 5 5 4 2 1 1 3 5 1 1 3 6 8 3 4 4
34 34 33 45 40 36 33 29 26 23 20 16 15 16 18 22 9 8 4 2 3 6 3 2 1 2 4 5 4 4 4 6 4 4 5 3 2 3 2 2 4 9 5 6 3 2 1
37 36 34 46 41 38 34 30 27 24 20 17 17 19 24 14 3 2 4 3 4 4 2 2 3 2 3 2 4 3 3 4 2 4 4 5 3 2 2 4 2 3 4 1 1 0 4
34 34 35 43 41 39 35 31 28 24 20 17 18 19 24 23 10 3 3 4 3 3 5 1 3 3 4 2 3 4 3 3 5 4 3 3 1 3 4 2 3 2 3 4 5 3 1
33 34 33 38 43 40 35 32 28 24 20 15 17 15 10 25 22 17 4 4 6 6 4 6 3 4 1 2 4 4 3 2 1 2 4 3 1 2 3 1 1 3 2 2 6 2 0
34 34 33 40 44 41 36 33 29 25 20 20 16 12 7 10 10 9 4 5 4 4 2 2 4 2 3 2 3 3 1 1 2 2 1 5 3 1 1 1 6 1 6 3 2 3 3
35 35 33 43 46 43 36 33 29 25 21 23 8 3 7 12 11 4 4 5 5 6 5 5 5 4 3 5 3 2 4 1 1 1 2 3 2 2 1 1 4 3 2 5 4 1 2
36 35 36 47 48 43 38 33 29 25 20 28 5 3 6 14 3 0 4 5 3 4 3 4 4 4 4 3 3 3 6 1 1 1 4 1 4 2 1 0 2 1 3 4 3 4 1
35 33 34 47 47 43 40 36 30 26 30 16 4 3 2 5 4 1 2 2 2 2 1 3 3 3 2 4 4 2 3 2 1 3 5 5 1 3 3 2 1 2 2 4 5 2 5
34 29 39 41 44 42 40 36 32 28 33 10 3 3 2 3 1 8 5 3 1 3 2 3 5 4 4 3 4 5 3 2 2 3 6 4 2 4 7 3 1 4 4 5 3 3 4
30 27 35 48 45 43 39 35 32 30 36 4 1 3 3 3 1 5 4 5 4 2 1 2 3 2 5 4 2 3 2 2 3 1 3 2 4 2 1 1 2 2 4 8 7 4 6
29 41 40 45 43 40 38 34 31 31 39 3 4 4 3 2 5 6 2 6 6 2 1 1 6 3 2 5 6 8 6 4 4 2 2 2 4 1 4 1 3 3 6 7 8 4 10
33 33 38 41 40 38 35 33 32 34 38 6 3 3 5 3 3 6 6 6 7 6 2 4 6 4 4 1 3 4 6 8 5 5 3 2 5 3 3 2 2 5 9 11 5 6 7
31 41 40 39 37 35 33 30 29 34 39 5 5 5 4 2 2 6 8 4 6 6 6 3 4 4 1 11 9 8 12 13 13 10 3 5 4 2 2 1 2 4 2 2 10 6 13
38 37 38 35 34 31 29 28 29 37 42 5 7 5 3 3 3 3 6 5 7 4 4 3 4 1 9 3 4 4 4 5 5 7 6 3 4 3 2 3 5 5 3 5 6 6 12
35 35 32 30 30 28 26 27 31 38 45 5 7 10 5 6 5 6 5 5 5 4 3 3 4 6 5 3 3 4 3 4 1 1 2 4 5 3 3 2 5 5 2 3 3 4 2
34 31 29 27 25 24 25 27 33 40 46 9 7 8 6 4 0 5 4 6 5 4 4 4 5 1 3 2 3 3 3 1 3 4 2 2 3 3 2 4 7 6 1 2 3 4 1
31 28 26 22 21 21 22 27 34 41 44 13 7 8 3 3 1 0 4 5 3 2 5 5 4 2 2 3 3 3 3 4 2 3 5 5 5 3 3 1 6 5 3 5 4 2 2
28 25 24 22 19 17 19 25 33 40 42 16 6 6 8 4 3 5 10 7 1 6 6 1 3 4 4 4 1 3 2 1 2 3 1 3 5 3 8 5 3 5 4 1 1 3 2
Wind_Direction
259 257 257 259 260 262 269 278 287 286 288 290 295 294 300 295 292 284 281 276 277 278 286 291 301 315 336 290 252 18 85 160 168 173 174 159 151 173 189 206 161 207 202 232 269 132 146
257 259 256 255 250 258 264 276 285 281 286 290 295 293 300 294 292 283 272 269 273 271 275 282 290 308 70 270 228 209 54 165 184 181 177 155 198 206 209 219 198 222 119 141 73 127 126
254 256 253 253 252 258 260 272 279 278 283 290 294 292 299 292 289 277 268 265 261 261 267 272 270 180 235 244 252 202 288 266 209 195 165 204 198 177 153 220 212 135 94 88 51 110 110
250 252 252 250 253 253 258 269 275 275 280 288 290 289 296 290 283 273 262 256 243 246 256 261 223 130 249 263 265 270 275 242 219 210 204 225 208 221 259 79 22 126 79 100 87 119 34
248 248 248 249 250 253 256 261 269 271 277 286 286 287 289 286 276 262 242 218 213 227 227 140 138 111 266 294 259 296 225 165 145 188 205 75 142 186 101 170 95 28 140 132 109 30 135
245 245 245 245 246 250 254 257 262 266 275 283 282 284 285 278 258 224 194 151 156 119 154 198 262 279 274 305 310 313 263 236 147 130 105 156 124 140 96 168 177 164 128 156 126 15 57
255 243 246 244 244 248 252 252 256 260 271 279 277 280 276 260 221 190 157 124 128 227 216 197 191 265 293 312 298 273 50 127 94 65 73 161 149 127 131 68 138 124 113 103 47 55 76
248 241 242 242 242 246 250 248 249 255 264 271 272 271 258 231 196 180 171 206 234 180 306 220 253 279 271 270 317 303 340 110 131 117 221 46 88 315 68 64 83 89 129 91 103 87 92
252 251 239 241 239 241 247 248 245 247 256 262 258 254 233 200 170 182 212 228 180 331 128 265 191 208 230 158 199 238 58 61 70 28 22 141 142 69 74 82 105 72 104 164 129 103 80
248 242 237 238 237 237 239 243 242 243 249 252 241 230 203 177 167 197 232 271 253 202 74 284 228 252 140 154 70 289 28 108 51 144 114 78 354 113 103 94 167 79 76 126 128 108 144
246 245 241 234 234 235 234 236 237 241 243 248 229 215 206 186 147 198 235 241 196 124 91 253 230 156 81 146 169 14 25 41 141 155 150 224 104 99 72 322 69 125 119 123 117 110 150
239 241 241 231 231 231 232 229 231 236 239 239 223 207 194 211 265 222 252 222 156 49 258 218 232 125 73 13 27 315 51 40 135 85 45 92 25 60 122 62 59 149 89 60 64 83 228
233 237 235 227 226 228 227 225 226 230 234 229 218 204 197 189 194 203 229 114 45 125 308 206 166 126 96 49 52 37 35 37 121 102 33 20 348 320 70 96 101 104 95 47 344 154 232
233 239 231 224 224 225 224 220 223 224 231 227 213 199 207 212 225 61 174 60 159 219 220 354 125 97 117 167 36 21 87 80 32 71 107 140 321 15 349 75 144 74 152 161 199 201 241
232 239 237 224 223 221 219 219 216 218 221 218 186 189 226 233 241 253 82 80 204 208 200 158 84 94 69 74 113 77 54 97 42 17 124 137 182 339 36 70 144 160 148 117 106 23 277
236 232 236 222 220 218 214 214 212 212 211 199 167 169 230 202 178 157 82 214 218 207 213 172 136 142 137 140 84 83 123 263 130 37 199 188 114 37 46 119 57 129 135 119 39 159 249
234 230 235 219 218 212 209 207 210 209 202 182 172 144 180 163 157 67 161 218 227 238 204 174 158 124 130 136 115 128 171 281 196 74 104 132 104 259 190 19 166 141 125 66 102 74 176
234 228 223 212 214 207 201 203 204 204 189 173 168 166 166 160 83 360 158 198 194 270 163 215 120 108 140 128 129 147 176 201 147 217 155 158 124 137 167 283 290 141 142 138 129 184 75
228 230 216 207 210 202 197 196 197 197 183 163 154 149 79 171 134 250 261 210 176 290 270 138 100 107 78 133 110 139 143 103 159 138 163 187 54 89 16 355 339 208 135 107 104 101 189
221 230 223 210 206 199 196 191 191 192 186 186 133 125 5 57 86 140 155 167 148 208 224 95 119 86 105 95 35 155 131 46 86 98 57 86 112 165 189 190 168 175 174 168 141 149 169
215 211 232 201 200 196 194 188 187 188 184 177 66 188 172 181 270 140 134 165 147 249 167 53 75 128 152 118 99 123 134 125 41 136 56 101 153 136 118 41 249 229 181 188 204 178 191
204 210 198 197 193 193 191 187 185 188 180 223 141 136 38 81 132 120 157 197 149 179 268 101 120 126 103 149 180 189 147 187 185 74 83 13 160 156 193 351 9 275 238 211 228 224 252
194 211 203 193 191 191 188 186 187 186 173 181 172 87 107 320 106 122 193 178 175 138 48 48 141 114 91 117 92 70 81 80 103 140 128 94 139 129 246 357 360 314 226 204 192 203 202
206 185 195 188 188 189 186 186 186 185 179 192 165 118 94 188 143 183 174 159 150 176 145 65 71 101 171 128 111 68 60 70 66 50 63 126 95 61 165 12 252 246 181 188 223 232 217
184 190 185 184 187 185 183 185 185 183 185 212 159 128 122 135 179 132 151 120 98 68 75 84 12 339 144 65 73 60 357 25 25 39 28 44 122 100 158 204 301 288 191 184 183 274 215
189 179 178 181 182 180 183 185 185 184 187 202 152 117 108 123 236 149 141 175 141 119 55 73 36 90 67 75 78 133 189 208 217 90 52 58 63 110 140 186 235 245 273 195 162 282 253
170 170 172 175 173 177 183 184 185 184 189 192 149 128 100 116 200 142 160 162 132 103 103 122 160 192 52 78 89 145 204 210 191 171 188 45 15 169 152 232 285 254 304 171 109 258 202
158 160 160 158 166 172 179 184 184 183 186 187 124 151 122 102 326 65 163 133 114 126 136 171 91 320 56 81 135 182 168 206 153 160 181 178 158 181 112 196 273 183 126 173 226 275 242
145 145 146 148 150 160 172 179 181 182 184 186 114 124 120 80 137 92 82 72 301 160 126 194 146 158 166 92 128 116 145 131 133 224 336 237 198 180 195 220 243 220 242 224 174 268 260